Wind_Speed
20 20 20 21 21 13 11 10 9 9 9 8 7 7 7 6 6 6 6 6 6 5 4 3 2 2 1 0 1 1 2 2 2 3 4 4 4 4 4 4 4 4 4 4 4 4 4 4 5
20 19 22 24 16 11 12 12 11 11 9 8 8 7 8 7 7 6 6 6 6 5 4 4 3 2 1 1 1 1 1 2 2 2 3 3 3 3 3 4 4 4 4 4 4 4 5 5 5
20 19 24 20 11 12 12 12 13 12 11 10 9 9 8 8 8 6 6 6 6 5 5 4 3 3 1 1 1 1 2 2 2 2 2 2 3 3 3 3 3 4 4 4 4 4 5 5 4
19 22 22 14 11 12 12 12 12 12 11 10 10 10 10 9 8 7 7 6 6 6 5 4 3 2 2 1 1 1 1 2 2 2 1 2 2 2 3 3 3 4 4 4 4 4 5 5 4
19 21 18 11 11 12 12 12 12 12 11 11 11 12 11 11 10 8 8 7 6 6 6 4 3 2 2 1 1 1 2 2 2 1 1 2 2 2 2 3 3 4 4 4 4 4 4 4 4
21 20 15 10 11 12 12 11 10 12 12 12 12 13 12 12 11 10 9 8 8 8 7 6 4 2 2 2 2 2 2 2 2 1 1 1 1 1 2 2 2 3 3 4 4 4 4 5 4
21 17 10 8 9 10 10 10 10 12 12 12 13 13 13 13 12 12 11 10 9 9 8 7 6 3 3 2 2 3 3 2 2 2 1 1 0 1 1 2 2 2 3 3 4 4 4 4 4
17 13 9 8 8 8 9 9 10 11 13 13 13 14 14 14 13 12 12 11 10 10 9 7 6 4 3 3 3 3 3 3 3 2 1 1 0 1 1 2 2 2 3 3 3 4 4 4 4
12 12 8 7 7 7 8 8 9 9 12 14 14 14 15 14 13 13 12 12 11 11 10 9 7 5 4 3 3 3 3 3 3 3 2 2 1 1 2 2 2 2 3 3 3 3 3 3 3
10 9 4 3 5 6 8 8 10 11 11 13 14 14 15 15 14 14 14 13 12 12 11 11 9 8 5 4 2 2 3 3 3 3 3 2 2 1 2 2 3 3 3 3 3 3 3 3 2
7 5 3 3 4 6 7 9 10 12 14 14 14 14 15 15 14 14 14 14 14 13 12 11 10 9 7 5 3 2 2 3 4 3 3 3 2 2 2 2 2 3 3 3 3 3 2 2 2
5 2 3 3 5 5 5 7 7 9 11 13 13 13 14 15 15 15 15 15 15 14 13 12 11 10 8 6 4 3 2 3 4 3 3 3 3 1 1 2 2 2 2 2 2 2 2 2 2
3 2 3 4 5 4 5 5 6 8 10 12 13 13 14 15 15 15 15 15 15 14 14 13 11 10 9 6 5 4 3 2 3 3 3 3 3 2 2 2 3 3 2 2 2 2 2 2 1
4 3 3 3 3 3 5 5 8 9 10 12 13 14 14 15 15 16 16 16 15 15 14 13 12 11 10 8 6 4 3 3 3 4 4 4 4 3 2 2 3 3 2 2 2 1 2 2 1
5 4 3 4 4 4 2 2 6 9 9 12 14 14 15 16 16 16 16 16 15 15 15 14 12 11 10 8 6 5 3 2 2 3 4 5 5 5 4 4 3 3 3 2 2 2 2 2 2
4 3 1 4 5 5 5 3 6 9 10 11 14 15 15 16 16 16 16 16 16 16 16 14 13 11 10 8 7 5 4 3 2 3 3 5 5 5 5 5 4 4 3 3 3 2 2 2 2
4 2 1 5 6 4 5 8 9 9 9 11 13 14 15 16 17 16 16 16 16 17 16 14 13 12 10 9 8 5 4 4 4 3 4 4 5 6 5 5 5 4 4 3 2 2 2 2 2
2 3 5 6 8 3 3 7 9 10 9 11 12 13 15 16 16 16 16 17 17 17 16 15 13 13 12 10 8 6 5 5 4 3 3 4 5 6 6 6 6 5 4 4 3 3 3 3 2
8 8 7 7 9 4 4 6 8 10 10 11 12 14 15 16 16 16 17 17 17 17 16 14 13 14 13 11 10 8 6 6 5 4 4 4 5 6 7 6 7 6 5 4 4 5 4 4 4
11 8 5 8 9 5 4 6 8 10 11 12 13 13 14 15 15 16 16 17 18 18 17 15 14 13 12 12 11 9 8 6 5 5 4 4 5 5 6 7 7 6 6 6 5 6 6 5 5
10 8 7 9 9 5 5 7 10 12 13 13 13 13 13 14 15 16 16 17 18 18 17 15 14 13 12 11 11 10 8 7 6 6 5 6 6 6 6 6 6 6 6 6 7 7 7 6 6
9 10 11 10 7 5 6 11 13 13 12 13 14 14 14 14 15 15 16 17 18 18 17 15 14 13 12 11 11 10 9 8 7 6 7 7 7 7 7 7 7 7 7 7 7 7 7 7 7
12 12 11 9 8 7 6 10 13 13 10 11 13 14 15 15 15 15 15 17 17 17 16 15 15 13 12 12 11 10 9 9 8 7 7 7 7 7 7 7 7 8 8 8 8 8 9 9 9
14 12 9 7 7 8 7 9 12 13 11 12 14 15 15 14 14 14 15 17 17 17 15 15 15 14 13 12 11 10 9 8 8 7 6 7 7 7 7 8 8 8 9 9 9 10 10 11 11
15 12 9 7 8 8 8 9 13 15 15 15 15 15 15 14 14 13 14 16 17 17 15 14 14 13 13 13 11 11 10 9 8 7 6 7 6 6 7 7 8 7 8 9 10 11 12 12 12
15 13 11 8 8 8 8 10 13 15 16 16 15 14 13 13 13 13 14 15 16 16 15 15 14 13 13 13 12 11 10 9 9 8 7 7 6 7 7 7 8 9 10 10 11 12 13 14 14
16 15 13 12 13 13 13 10 14 17 16 15 13 13 13 12 13 13 13 14 15 15 16 16 15 14 14 13 12 11 11 10 9 8 8 7 7 7 8 9 9 10 12 12 12 13 13 14 16
19 16 15 17 16 14 13 12 14 15 15 15 14 13 12 12 13 13 13 13 14 16 16 16 15 14 14 13 12 12 11 11 10 10 10 9 8 8 10 10 11 11 12 13 13 14 14 15 15
21 20 19 18 17 14 14 15 14 15 15 15 15 14 13 13 13 14 14 14 15 16 16 15 15 15 15 14 13 12 12 12 11 10 10 10 10 10 10 10 11 12 12 13 14 14 15 16 16
21 20 20 21 20 18 15 16 15 14 14 14 15 15 14 14 13 15 15 15 15 16 17 16 16 16 16 15 14 14 13 13 13 12 12 11 11 11 12 12 12 12 13 14 15 16 16 17 17
Wind_Direction
80 78 75 69 64 58 58 56 50 56 62 65 62 59 62 60 59 51 52 55 52 51 55 56 59 64 67 105 175 185 171 170 162 155 149 144 135 132 129 128 126 120 112 104 101 100 97 93 90
85 80 73 66 64 49 51 49 49 54 58 56 57 56 58 60 57 51 51 55 52 48 47 42 38 33 8 317 259 227 200 182 176 163 150 144 140 140 135 123 118 118 114 108 106 108 107 104 101
88 79 72 64 45 46 48 45 47 48 52 52 55 55 58 57 57 51 50 55 52 45 36 31 23 14 352 306 282 239 215 195 178 166 158 153 150 151 144 126 120 118 115 110 105 110 107 104 105
85 77 74 62 43 45 43 43 44 42 45 47 50 52 54 56 55 53 51 52 49 41 31 25 14 360 349 317 290 244 207 183 173 168 157 154 155 146 136 127 122 118 112 110 104 101 105 105 103
82 72 75 56 44 45 41 43 39 35 43 46 48 50 50 52 52 51 50 50 47 41 34 26 15 356 331 312 286 245 210 193 181 174 164 157 152 138 127 119 116 117 112 109 107 103 108 112 108
80 69 67 50 39 37 37 38 36 34 40 44 46 46 47 49 49 48 46 47 44 40 35 28 15 2 342 304 273 238 212 213 204 202 196 180 157 142 128 117 115 117 118 113 112 113 112 113 109
77 71 63 46 39 33 36 32 31 31 37 44 42 41 44 47 47 45 43 42 39 34 31 25 22 11 345 308 272 243 228 229 236 239 242 251 207 142 132 129 127 125 123 120 118 120 118 116 108
80 78 66 55 38 29 32 30 35 38 40 40 38 37 39 43 43 41 40 36 31 28 25 18 14 358 336 310 274 249 242 244 248 244 250 264 224 172 151 140 137 131 130 129 127 126 121 117 114
80 83 71 51 36 27 29 30 30 39 48 40 34 33 35 38 39 36 35 34 28 25 23 16 10 3 350 332 286 251 252 252 251 245 249 253 228 191 170 152 146 141 139 134 133 132 126 118 114
76 79 75 69 56 35 29 26 19 16 39 37 27 28 31 34 34 34 34 33 29 25 20 14 11 6 357 336 311 264 251 243 249 249 251 253 235 213 172 160 152 147 144 142 141 142 138 128 121
90 90 90 53 49 52 34 25 16 9 19 20 19 26 30 31 31 31 30 29 27 24 21 17 12 8 1 352 326 313 285 243 241 246 252 247 245 224 160 166 166 162 156 151 147 146 142 136 127
98 103 88 60 43 51 44 32 19 14 7 11 14 22 27 29 29 29 28 26 24 22 20 17 14 10 5 353 340 321 308 256 240 246 246 248 257 225 180 165 167 173 169 163 158 160 157 155 167
125 113 67 45 36 33 58 41 25 16 6 6 13 20 21 22 22 23 25 23 21 18 15 13 10 8 6 356 338 321 318 283 252 252 249 248 270 254 214 194 190 195 197 184 179 177 185 190 200
155 133 77 34 19 36 45 21 13 12 2 8 13 17 19 19 18 17 18 18 17 14 10 6 4 4 1 354 342 328 320 295 269 255 256 250 251 249 233 226 204 204 214 228 222 211 220 226 237
141 105 60 345 348 337 34 38 351 354 357 5 10 13 15 14 13 12 12 11 10 10 7 4 1 360 357 353 348 338 335 314 289 274 266 246 240 244 240 240 232 232 244 255 256 239 240 244 255
92 88 111 276 305 320 339 320 349 346 349 358 4 7 8 8 9 8 7 7 5 5 4 2 360 357 353 348 344 339 329 320 300 280 269 253 241 238 237 238 236 239 247 256 261 242 237 242 249
23 359 258 266 299 301 326 327 336 339 342 345 353 1 3 2 4 5 4 3 1 1 360 358 358 358 354 349 345 340 330 315 300 287 268 257 249 240 242 243 240 242 252 257 255 245 242 239 236
227 252 250 264 283 289 308 315 318 327 334 335 340 352 358 359 359 360 0 359 358 357 356 355 356 357 353 349 346 344 337 327 316 308 275 264 259 249 249 251 248 249 256 254 251 248 252 249 244
198 198 224 251 268 270 267 283 300 311 325 327 332 339 351 352 356 355 356 356 357 356 355 355 354 353 351 350 351 348 335 321 320 313 298 276 269 258 254 255 255 252 248 249 249 249 255 261 258
205 202 239 275 276 275 259 269 291 308 320 324 327 330 343 349 352 353 352 354 354 353 353 352 351 349 349 350 349 349 345 334 323 313 299 285 277 268 258 253 253 250 251 251 252 252 254 260 263
210 205 216 241 270 298 304 293 277 293 311 318 323 325 335 344 347 350 351 351 351 351 351 348 347 346 345 345 344 340 339 333 322 305 295 281 271 267 259 253 247 250 252 256 257 258 257 262 265
219 226 224 228 240 263 277 285 281 282 307 321 321 324 329 339 343 345 346 348 349 348 348 348 346 345 343 339 337 337 334 329 324 316 295 286 275 270 266 253 252 254 257 257 258 260 259 259 265
213 226 233 232 235 233 245 274 291 290 293 312 317 319 324 332 338 341 343 344 346 346 346 347 346 343 340 339 337 337 336 331 330 321 301 294 283 271 262 256 256 256 256 257 259 261 260 260 265
225 231 235 239 242 248 246 258 277 282 285 299 305 310 316 322 330 336 339 342 344 345 344 343 346 346 342 340 340 340 338 335 334 332 319 309 293 278 265 260 265 267 262 261 264 265 263 263 264
231 231 235 256 267 261 253 250 264 275 282 288 292 300 309 315 322 327 334 338 340 343 343 342 344 344 343 341 342 340 338 335 335 336 327 318 305 281 267 264 268 271 268 267 271 271 270 269 267
235 227 218 227 268 281 261 240 256 271 280 288 294 297 305 311 318 322 329 334 337 341 342 340 339 339 339 339 340 340 338 338 337 332 327 323 313 299 290 280 279 278 278 276 278 281 278 272 271
233 234 221 231 252 273 272 255 265 277 285 292 295 296 301 308 315 322 327 330 334 339 339 340 341 339 338 338 338 339 339 337 334 331 327 325 317 305 300 294 285 283 283 280 282 285 284 281 275
227 231 231 226 238 255 264 266 258 267 287 295 295 295 298 304 309 319 325 327 330 334 335 336 337 338 339 339 338 338 337 336 334 331 322 321 318 311 306 297 290 287 288 286 284 286 288 285 282
232 227 226 230 228 242 264 266 258 262 276 290 293 292 294 295 301 309 316 322 324 328 331 331 333 334 334 332 330 330 330 329 329 327 326 323 320 319 315 306 298 293 292 290 289 287 287 286 284
234 236 232 231 231 229 246 275 275 275 284 285 286 287 289 292 298 302 310 316 320 323 326 327 328 330 330 327 326 323 323 324 322 321 317 318 317 314 309 307 301 299 293 291 291 290 289 289 287
Height
5911 5910 5910 5908 5909 5911 5910 5909 5908 5906 5906 5904 5903 5902 5901 5900 5901 5902 5899 5898 5898 5897 5897 5898 5898 5898 5898 5898 5898 5898 5897 5897 5897 5897 5897 5897 5897 5897 5897 5897 5897 5897 5897 5898 5898 5898 5898 5899 5899
5913 5913 5911 5910 5914 5913 5913 5911 5910 5909 5908 5906 5905 5904 5903 5902 5902 5901 5900 5899 5899 5898 5898 5898 5898 5898 5899 5899 5898 5898 5898 5898 5898 5898 5898 5898 5898 5898 5898 5898 5898 5898 5898 5898 5899 5899 5899 5899 5900
5915 5914 5912 5915 5917 5916 5916 5914 5912 5911 5909 5908 5907 5906 5905 5904 5903 5902 5901 5900 5900 5900 5899 5899 5899 5899 5899 5899 5899 5899 5899 5899 5899 5899 5898 5898 5898 5898 5898 5898 5898 5899 5899 5899 5899 5900 5900 5900 5901
5918 5916 5916 5921 5921 5919 5918 5916 5914 5913 5911 5910 5909 5908 5906 5905 5904 5903 5902 5901 5901 5901 5900 5900 5900 5900 5900 5900 5900 5900 5900 5899 5899 5899 5899 5899 5899 5899 5899 5899 5899 5899 5900 5900 5900 5901 5901 5901 5901
5919 5918 5921 5924 5923 5922 5920 5918 5917 5915 5914 5912 5911 5909 5907 5907 5905 5904 5903 5903 5902 5902 5901 5900 5900 5900 5900 5900 5900 5900 5900 5900 5900 5900 5900 5900 5900 5900 5900 5900 5900 5900 5901 5901 5901 5901 5902 5902 5902
5921 5922 5926 5927 5926 5925 5923 5920 5919 5918 5916 5914 5913 5911 5910 5908 5907 5906 5905 5904 5903 5902 5902 5901 5901 5900 5900 5900 5900 5900 5900 5900 5901 5901 5901 5901 5900 5900 5901 5901 5901 5901 5901 5902 5902 5902 5902 5903 5903
5923 5925 5930 5930 5929 5928 5926 5923 5921 5920 5918 5916 5915 5913 5912 5910 5909 5908 5906 5905 5905 5904 5903 5902 5901 5901 5901 5900 5900 5901 5901 5901 5901 5901 5901 5901 5901 5901 5901 5902 5902 5902 5902 5902 5903 5903 5903 5904 5904
5928 5931 5932 5932 5932 5930 5928 5926 5924 5923 5921 5919 5917 5916 5914 5912 5911 5909 5908 5907 5906 5905 5904 5903 5902 5901 5901 5901 5900 5901 5901 5901 5901 5902 5902 5902 5902 5902 5902 5902 5903 5903 5903 5903 5904 5904 5904 5905 5905
5932 5934 5936 5936 5934 5933 5930 5928 5926 5923 5922 5921 5920 5918 5916 5914 5913 5911 5910 5908 5907 5906 5905 5904 5902 5901 5901 5901 5900 5901 5901 5901 5902 5902 5902 5902 5902 5903 5903 5903 5903 5903 5904 5904 5904 5905 5905 5905 5905
5935 5936 5938 5937 5936 5935 5933 5930 5928 5924 5922 5923 5922 5920 5918 5916 5914 5913 5911 5910 5908 5907 5906 5904 5903 5902 5902 5901 5901 5901 5901 5902 5902 5902 5902 5902 5903 5903 5903 5903 5903 5904 5904 5904 5905 5905 5905 5905 5906
5937 5938 5938 5938 5936 5936 5935 5933 5931 5928 5925 5925 5923 5922 5920 5918 5916 5914 5913 5911 5910 5908 5907 5905 5904 5903 5902 5901 5901 5901 5901 5902 5902 5902 5902 5903 5903 5903 5903 5904 5904 5904 5905 5905 5905 5905 5906 5906 5906
5939 5939 5939 5939 5937 5937 5937 5936 5934 5932 5929 5927 5925 5923 5922 5920 5918 5916 5914 5913 5911 5909 5908 5906 5905 5903 5902 5902 5901 5901 5901 5901 5902 5902 5902 5903 5903 5903 5904 5904 5905 5905 5905 5906 5906 5906 5906 5907 5907
5940 5940 5940 5940 5939 5938 5937 5937 5936 5934 5932 5929 5927 5925 5923 5921 5920 5918 5916 5914 5913 5911 5909 5907 5906 5904 5903 5902 5902 5901 5901 5901 5901 5901 5902 5902 5903 5904 5904 5904 5905 5905 5906 5906 5906 5907 5907 5907 5907
5940 5940 5941 5941 5940 5939 5938 5938 5937 5935 5933 5931 5928 5927 5925 5923 5921 5919 5917 5916 5914 5912 5910 5908 5906 5905 5903 5902 5902 5901 5901 5901 5901 5901 5901 5902 5903 5903 5904 5905 5905 5905 5906 5906 5907 5907 5907 5907 5907
5939 5941 5943 5943 5942 5940 5939 5939 5938 5937 5934 5932 5930 5928 5926 5924 5923 5921 5919 5917 5915 5913 5911 5909 5907 5905 5904 5903 5902 5901 5901 5901 5901 5901 5902 5902 5903 5903 5904 5905 5905 5906 5906 5906 5907 5907 5907 5907 5908
5940 5942 5943 5945 5943 5941 5942 5939 5938 5937 5935 5933 5931 5929 5928 5926 5924 5922 5920 5918 5916 5914 5911 5909 5907 5906 5904 5903 5902 5901 5901 5901 5901 5901 5902 5902 5902 5903 5903 5904 5905 5905 5906 5906 5906 5907 5907 5907 5907
5941 5944 5946 5945 5943 5943 5942 5940 5939 5938 5936 5934 5932 5930 5929 5927 5925 5923 5920 5919 5916 5914 5912 5910 5908 5906 5904 5903 5902 5901 5901 5901 5901 5901 5901 5901 5901 5902 5903 5904 5904 5905 5905 5906 5906 5907 5907 5907 5907
5945 5948 5948 5947 5943 5943 5943 5942 5941 5939 5937 5935 5933 5931 5930 5928 5926 5923 5921 5919 5917 5915 5912 5910 5908 5907 5905 5903 5902 5901 5901 5900 5900 5901 5900 5900 5901 5901 5902 5903 5904 5904 5905 5905 5906 5906 5907 5907 5907
5942 5945 5947 5946 5944 5943 5944 5944 5942 5940 5938 5936 5934 5931 5930 5928 5926 5924 5922 5920 5917 5915 5913 5911 5909 5907 5905 5904 5902 5901 5901 5900 5900 5900 5900 5900 5900 5901 5901 5902 5903 5903 5904 5905 5905 5906 5906 5907 5907
5940 5943 5945 5945 5943 5942 5943 5943 5942 5940 5938 5937 5934 5932 5930 5928 5926 5924 5922 5920 5918 5915 5913 5911 5909 5907 5906 5904 5903 5901 5900 5900 5899 5899 5899 5899 5899 5900 5901 5901 5902 5902 5903 5904 5904 5905 5905 5906 5906
5938 5941 5944 5945 5942 5942 5943 5942 5940 5939 5938 5936 5934 5932 5930 5928 5927 5924 5922 5920 5918 5915 5913 5911 5909 5907 5906 5904 5903 5901 5900 5899 5899 5899 5899 5899 5899 5899 5899 5900 5901 5901 5902 5902 5903 5903 5904 5905 5905
5936 5939 5939 5940 5941 5942 5944 5943 5939 5936 5936 5935 5933 5932 5929 5928 5926 5924 5922 5920 5918 5915 5913 5911 5909 5907 5905 5904 5902 5901 5900 5898 5898 5897 5897 5897 5897 5898 5898 5899 5900 5900 5901 5901 5901 5902 5903 5903 5904
5934 5935 5937 5938 5939 5940 5942 5942 5940 5936 5933 5934 5932 5931 5929 5927 5926 5924 5922 5920 5918 5915 5913 5911 5909 5907 5905 5903 5902 5900 5899 5898 5897 5896 5895 5896 5896 5896 5897 5898 5898 5898 5899 5899 5900 5900 5901 5901 5902
5930 5933 5934 5935 5937 5939 5940 5941 5939 5934 5933 5933 5931 5930 5929 5927 5925 5924 5922 5920 5918 5915 5913 5911 5909 5907 5904 5903 5901 5900 5898 5897 5896 5895 5895 5895 5894 5895 5895 5896 5897 5897 5897 5897 5898 5898 5899 5899 5900
5928 5931 5933 5935 5936 5937 5939 5939 5939 5935 5933 5932 5931 5930 5928 5926 5925 5923 5921 5920 5918 5915 5913 5911 5909 5907 5905 5903 5901 5900 5898 5897 5896 5894 5894 5894 5894 5894 5894 5895 5895 5895 5895 5895 5896 5896 5896 5897 5897
5925 5928 5932 5935 5936 5935 5935 5937 5936 5933 5932 5931 5929 5928 5927 5925 5924 5922 5921 5919 5917 5915 5913 5911 5909 5907 5905 5903 5901 5900 5898 5897 5895 5894 5893 5893 5893 5893 5893 5893 5893 5893 5893 5893 5894 5894 5894 5894 5894
5922 5925 5929 5932 5933 5935 5934 5933 5932 5930 5930 5929 5928 5926 5925 5924 5922 5921 5920 5918 5917 5915 5913 5911 5909 5907 5905 5903 5901 5900 5898 5896 5895 5894 5893 5892 5892 5892 5891 5891 5891 5891 5891 5891 5891 5891 5891 5890 5890
5919 5923 5926 5928 5930 5932 5932 5931 5929 5927 5927 5926 5925 5924 5923 5922 5920 5919 5918 5917 5916 5914 5912 5910 5908 5906 5905 5903 5901 5899 5898 5896 5895 5893 5892 5891 5891 5890 5890 5889 5889 5889 5889 5888 5888 5888 5888 5887 5887
5915 5918 5921 5924 5927 5929 5930 5929 5923 5923 5924 5924 5923 5922 5921 5920 5919 5918 5916 5915 5914 5913 5911 5909 5908 5906 5904 5902 5900 5899 5897 5896 5894 5893 5892 5890 5889 5889 5888 5887 5887 5886 5886 5886 5886 5885 5885 5884 5883
5911 5913 5917 5919 5922 5924 5926 5927 5922 5921 5922 5922 5921 5919 5918 5917 5916 5915 5915 5913 5912 5911 5910 5908 5906 5905 5903 5901 5899 5898 5896 5895 5893 5892 5891 5890 5888 5887 5887 5886 5885 5884 5884 5883 5883 5882 5881 5880 5880